Find Geely Xingzuo 04 zu 05 xing

NORAD ID: 65123 Int'l Des: 2025-170 Owner: GEESP Country: CN Constellation: geesatcom operational
LEOCIRCULAR

当前视图

正在加载3D地球...

关于 Geely Xingzuo 04 zu 05 xing

正在加载描述...

即将过境

Passes for default location (London). Set your location on the main map for personalized predictions.

高度历史

Loading altitude history...

两行轨道根数

1 65123U 25170E 26151.51932882 .00001994 00000-0 27590-3 0 9994
2 65123 49.9928 205.6358 0008331 257.4949 102.5056 14.82080638 44573
Epoch: May 31, 2026 • Age: 8 hours

当前状态

高度 625.5 km
速度 7.55 km/s
星下点 -14.02°S, 4.37°W
发射日期 Aug 8, 2025
运行时间 0.8 years
类型 other

技术详情

分类 Payload
质量 130.00 kg
干质量 130.00 kg
总质量 130.00 kg
长度 1.00 m
直径 0.50 m
跨度 2.00 m
形状 Box + 2 pan
制造商 GWCG
平台类型 GPS100
阶段状态 In Orbit
所有者/国家 GEESP/CN

Most Searched